RH
42 40 30 28 26 28 22 26 25 24 20 20 20 22 25 24 24 22 21 22 20 22 23 25 28 36 54 50 46 54 57 56 62 78 72 62 55 58 58 55 52 51 41 29 20 15 12
46 50 49 40 32 28 29 24 25 27 25 27 24 21 20 22 23 23 25 25 26 28 28 24 28 30 28 29 30 36 40 45 49 52 59 66 78 70 71 62 60 49 39 31 21 13 11
58 64 51 42 38 34 31 29 28 26 26 25 27 26 28 22 20 20 22 24 28 30 32 34 35 39 33 29 32 34 34 40 46 52 59 76 90 75 79 67 60 53 36 24 20 14 12
52 64 54 46 45 49 44 41 34 30 28 29 31 28 28 31 26 24 23 24 28 29 35 38 44 45 40 38 36 36 38 35 38 35 46 74 96 88 89 82 70 48 40 33 20 13 12
59 64 67 59 51 51 57 51 50 48 32 28 32 36 30 32 32 34 30 27 27 34 35 35 42 47 55 51 42 41 39 41 38 35 32 52 87 79 100 97 81 63 51 33 18 13 12
74 63 61 70 74 69 70 60 58 53 47 44 41 45 37 33 30 35 40 34 28 28 47 40 34 37 44 50 49 40 35 38 32 28 28 26 53 59 77 82 72 74 50 30 23 15 13
74 79 67 72 71 68 68 73 68 61 62 65 69 62 54 49 41 43 39 52 38 30 36 51 46 44 43 51 48 38 36 32 32 33 28 24 35 55 81 76 89 67 54 34 30 17 14
84 88 82 82 74 70 73 86 72 68 82 80 63 70 98 64 73 55 72 46 70 40 34 47 69 53 43 58 55 43 37 36 34 37 35 28 28 49 59 71 92 64 57 40 40 22 16
94 86 96 95 81 74 68 85 78 83 95 89 90 76 82 98 92 100 93 77 73 70 50 38 63 71 58 48 65 55 43 38 36 38 36 33 30 30 41 52 70 84 78 53 47 27 19
99 99 99 98 100 83 87 98 88 82 76 97 100 95 76 80 89 98 100 92 94 86 76 52 48 81 66 50 60 70 59 40 38 37 38 40 38 31 32 44 79 94 99 64 47 34 25
100 100 100 96 95 91 99 100 100 100 92 100 95 88 100 80 87 96 100 86 96 100 91 71 40 65 85 63 78 82 73 53 43 41 42 44 43 38 32 32 53 77 100 78 47 40 32
95 98 95 97 100 92 99 100 95 100 100 97 99 97 99 85 87 67 83 96 100 100 94 86 50 50 82 70 75 82 82 72 61 53 45 46 48 46 41 35 36 52 75 90 51 45 39
100 93 95 100 100 100 98 100 99 99 100 100 100 100 100 82 100 98 99 67 90 100 100 100 74 39 78 61 80 89 81 72 82 64 61 46 53 54 50 44 37 37 49 67 58 47 60
99 85 85 97 100 100 100 95 100 100 100 100 100 100 100 84 74 86 100 80 53 49 100 100 80 40 56 73 70 100 92 74 73 79 73 55 53 56 54 58 51 41 32 42 55 51 55
94 95 93 100 100 100 100 99 100 97 100 100 100 100 100 85 84 73 97 82 62 67 91 100 90 42 46 65 76 98 100 71 73 86 78 73 61 66 54 56 60 46 44 34 39 42 46
100 98 98 100 100 100 100 99 95 100 100 97 100 100 100 82 88 90 99 84 71 74 82 100 100 47 53 61 64 77 100 88 82 88 83 85 74 70 69 57 55 55 46 44 37 34 36
100 100 100 100 100 96 100 100 99 99 100 98 98 100 96 87 94 96 95 68 61 94 80 88 100 52 56 72 83 76 90 100 100 91 97 90 82 95 77 72 59 61 63 50 45 37 33
100 100 100 100 100 100 99 95 98 100 100 90 100 100 100 90 88 100 100 78 82 89 100 100 97 70 73 72 83 58 89 100 100 100 100 97 92 97 89 80 75 63 68 75 58 51 44
100 100 100 100 100 100 100 100 100 96 100 96 100 100 93 91 89 98 100 95 87 89 98 100 99 58 72 76 76 80 86 95 93 100 100 100 99 93 100 91 85 74 66 79 72 68 55
100 100 100 100 100 100 100 100 100 100 98 85 89 85 82 70 82 92 92 100 81 100 100 100 94 55 96 97 100 78 68 80 100 100 100 100 100 100 100 98 84 84 73 64 79 84 74
100 100 100 100 100 99 98 100 100 100 97 90 78 100 87 89 77 64 74 76 98 98 100 100 94 74 100 100 100 95 83 99 100 100 100 100 100 100 100 100 91 88 74 66 74 80 89
100 100 100 100 100 98 97 90 100 100 94 92 100 91 94 100 100 100 80 75 80 100 100 100 100 78 100 96 100 100 100 100 100 100 100 100 100 100 100 100 99 86 80 72 65 76 87
100 100 100 100 100 100 99 82 70 87 97 100 100 100 99 96 100 100 100 88 95 97 85 75 98 81 97 100 100 84 100 100 100 100 100 100 100 100 100 100 100 99 91 79 74 83 86
100 100 100 100 100 100 99 100 79 71 93 98 83 92 100 100 100 100 100 100 94 100 100 100 89 100 100 100 100 100 100 100 100 100 100 100 100 100 100 100 100 100 100 88 79 96 98
100 100 100 100 100 100 100 98 88 74 70 97 100 100 90 74 73 73 80 87 97 100 100 99 100 88 100 100 100 100 100 100 100 100 100 100 100 100 100 100 100 100 97 88 79 91 100
100 100 100 100 100 100 100 100 100 88 84 68 96 100 100 100 99 94 100 100 100 100 100 100 100 88 100 100 100 100 100 100 100 100 100 100 100 100 100 100 100 99 95 84 84 90 99
100 100 100 100 100 100 100 100 100 100 100 74 79 82 98 100 100 100 100 100 100 100 100 100 100 100 90 100 100 100 100 100 100 100 100 100 100 100 100 100 100 100 93 94 88 94 100
100 100 100 100 100 100 100 100 100 100 97 95 81 100 100 100 100 100 100 100 100 100 100 100 100 100 93 100 100 100 100 100 100 100 100 100 100 100 100 100 100 98 97 95 92 87 95
100 100 100 100 95 99 100 100 98 100 100 100 100 100 95 100 100 100 100 100 100 100 100 100 100 98 100 100 100 100 100 100 100 100 100 100 100 100 100 100 96 100 98 92 87 89 100
Wind_Speed
36 37 40 42 44 43 43 45 48 51 54 54 54 60 60 60 58 55 53 54 51 50 51 45 37 32 28 26 23 24 27 31 33 35 38 40 41 42 44 44 48 52 54 53 54 53 52
32 34 36 38 41 43 46 45 46 46 50 55 57 59 59 61 60 57 54 55 53 54 54 50 51 48 43 41 40 36 32 32 34 36 38 41 44 46 46 47 50 52 53 55 57 53 53
27 30 32 35 40 41 43 47 47 48 48 51 54 56 59 61 58 60 59 60 57 55 54 53 53 53 47 44 44 49 45 46 44 40 42 43 47 48 49 49 51 52 55 55 59 56 54
23 26 31 33 36 38 40 42 45 48 48 50 52 56 56 60 62 62 60 62 64 60 55 53 54 55 56 51 49 49 52 48 55 51 47 42 41 48 49 47 50 52 55 58 58 55 54
23 24 26 31 34 37 39 40 40 44 47 50 51 53 56 55 57 62 62 60 59 60 64 61 56 56 57 59 56 53 52 51 53 51 55 45 42 46 41 47 49 52 55 58 58 56 54
20 24 26 28 32 34 36 39 41 41 45 49 49 53 54 55 57 57 61 64 61 60 60 61 66 64 63 62 59 56 55 54 53 56 56 50 40 39 36 42 45 48 54 57 61 60 57
21 22 27 29 30 32 35 35 39 39 42 47 47 48 51 53 54 55 55 58 63 61 56 57 60 63 64 67 65 60 59 59 55 56 61 52 42 38 36 38 42 49 52 56 61 61 57
21 23 25 28 28 30 31 34 37 38 37 40 43 47 48 51 55 56 57 54 59 63 60 55 54 59 62 63 71 69 63 63 60 61 62 61 52 42 41 37 38 47 52 57 62 62 58
21 23 25 27 28 29 31 33 37 37 35 39 43 45 45 47 50 55 61 56 54 56 61 56 53 55 58 60 65 71 73 68 67 66 65 67 64 51 46 43 40 46 50 58 61 61 58
21 24 25 26 27 28 30 33 34 37 38 38 44 44 44 46 49 51 57 59 54 55 60 64 54 52 57 58 63 67 75 70 71 71 70 69 70 62 52 45 42 44 49 55 57 57 58
23 25 25 26 28 29 30 33 34 37 39 37 43 45 42 46 46 48 55 56 54 53 56 63 56 53 55 58 61 66 74 73 73 72 72 73 71 71 61 52 45 42 47 52 55 54 56
26 27 26 28 27 29 30 34 36 38 40 40 42 45 43 42 45 47 50 54 54 52 56 58 62 53 56 58 59 63 71 74 73 75 74 73 74 71 70 61 53 42 43 48 51 48 51
28 28 30 29 29 30 32 32 34 37 40 42 44 46 43 40 44 47 49 50 50 51 56 54 61 55 54 59 56 59 68 74 69 74 75 75 74 73 73 69 60 51 45 47 48 42 47
26 27 27 28 30 31 34 35 35 38 37 39 42 43 41 41 46 46 49 50 47 45 53 52 60 52 54 59 57 59 65 70 74 74 73 75 74 75 73 73 70 60 55 46 45 41 36
31 29 30 32 32 33 38 40 41 42 42 41 41 41 44 48 50 49 47 48 52 49 49 51 57 54 52 55 55 56 63 68 72 74 76 73 74 74 72 72 70 67 57 50 43 37 28
33 34 36 35 36 38 42 43 46 45 46 45 42 43 46 53 51 48 51 53 50 50 49 53 57 58 52 55 58 56 60 64 69 72 74 74 71 73 75 69 69 67 62 53 47 40 33
38 38 40 42 44 45 46 46 47 45 45 46 45 48 48 51 51 52 52 55 49 50 52 52 54 58 56 54 59 59 58 59 66 71 70 73 69 67 71 75 67 64 66 62 54 46 41
40 41 44 45 47 48 49 51 50 48 48 52 47 47 49 51 53 53 58 57 54 52 53 52 53 58 57 57 59 59 58 59 64 69 69 71 68 68 71 72 66 62 60 62 58 54 47
42 41 43 46 49 51 52 52 53 52 50 47 46 48 50 52 52 56 57 60 57 57 56 55 55 57 57 60 61 61 59 61 65 68 67 67 69 69 68 70 63 59 59 57 59 57 51
47 46 48 49 49 51 53 52 52 50 49 50 48 49 51 52 57 58 59 64 63 61 59 56 62 61 58 59 65 65 64 61 64 67 71 69 69 69 70 68 67 59 56 55 55 59 57
53 53 55 55 53 53 52 55 55 56 58 56 56 56 61 64 63 60 61 64 66 62 63 64 65 61 55 60 68 71 68 63 66 68 73 73 72 73 72 68 68 61 58 55 54 56 59
57 57 58 57 58 58 55 56 59 61 58 60 60 62 64 66 65 68 65 65 67 68 68 70 71 70 54 66 70 70 70 70 70 70 74 74 74 75 73 72 70 65 62 59 56 57 60
63 63 63 62 63 62 60 61 59 60 59 65 69 72 69 67 68 72 70 67 66 68 71 75 78 76 65 65 73 72 70 70 71 76 79 76 74 75 73 75 71 69 69 66 60 62 63
70 70 71 69 67 66 65 60 62 65 68 68 69 72 70 70 72 72 70 68 70 68 74 76 82 68 72 74 74 72 72 75 77 79 82 78 77 78 76 78 73 73 73 69 65 66 69
77 76 77 75 74 74 69 70 70 68 67 74 76 75 74 73 75 77 78 76 75 73 81 86 83 76 72 75 72 75 83 79 76 85 82 82 81 82 80 78 78 77 77 74 69 69 73
83 83 81 80 80 79 78 80 76 77 75 79 82 82 80 80 79 79 78 76 79 89 86 87 88 89 88 74 71 77 81 78 81 88 84 83 82 83 82 83 83 81 81 81 76 74 77
88 87 88 86 84 81 83 83 83 80 78 81 83 84 87 84 86 80 78 88 91 93 91 90 91 95 94 81 76 75 80 85 88 88 86 85 85 83 85 87 88 86 86 84 83 82 81
96 95 93 92 88 91 92 91 89 87 87 88 90 90 91 94 91 95 91 93 93 98 95 96 100 97 87 80 76 80 83 84 89 87 86 86 87 87 88 93 92 91 90 90 89 87 90
100 100 101 100 102 101 102 103 98 94 89 90 89 94 98 100 102 103 103 97 97 95 99 100 100 96 81 83 82 81 84 86 87 86 85 86 88 88 92 96 99 95 96 97 96 96 97
Wind_Direction
51 48 47 46 48 49 46 47 47 46 49 44 42 44 43 42 40 39 42 44 43 47 42 39 33 27 8 353 341 330 319 312 310 307 306 306 309 312 317 320 322 320 319 323 320 316 308
48 45 42 38 40 43 45 44 41 42 41 43 44 42 39 42 43 41 37 40 42 41 40 41 37 31 27 23 20 4 347 328 317 311 306 308 311 316 321 320 321 322 323 325 326 325 315
42 37 35 35 36 35 36 38 39 38 36 37 40 38 37 37 36 36 40 39 36 37 37 34 29 26 25 23 23 16 10 2 346 326 312 309 313 319 321 323 323 324 328 332 332 331 325
37 34 31 30 30 30 27 31 32 33 32 33 30 33 32 32 31 33 31 35 37 34 31 29 30 28 25 19 15 12 10 2 359 352 338 316 311 310 322 326 326 330 337 334 333 336 334
23 25 23 21 24 25 24 24 23 25 26 27 30 26 26 27 27 26 28 26 28 30 29 28 24 21 21 18 14 11 6 1 356 355 353 333 313 318 319 321 329 336 337 335 339 344 341
18 15 17 15 13 14 15 17 18 20 19 20 23 23 21 21 22 21 21 22 21 21 23 22 22 21 18 15 12 10 6 4 3 4 358 351 330 324 323 324 333 334 338 340 344 347 349
3 3 7 11 8 7 11 11 9 13 16 14 16 16 16 15 18 16 17 15 17 17 18 17 18 17 18 17 13 11 8 6 6 6 6 359 352 336 328 332 339 336 341 346 349 350 354
348 352 356 359 4 4 5 4 7 10 10 12 11 12 10 6 10 12 11 9 9 11 13 13 14 13 11 12 13 12 9 8 6 8 8 10 4 352 338 337 338 339 347 350 353 352 358
341 346 348 350 355 356 1 1 2 1 2 3 5 8 5 3 359 1 3 3 4 4 8 7 11 10 6 8 10 10 9 7 6 8 8 13 10 2 357 348 344 346 349 350 355 354 0
326 335 339 344 343 351 354 350 355 358 358 355 357 359 3 4 1 355 357 359 357 356 0 2 4 4 3 3 5 6 8 8 7 6 6 10 13 7 2 358 350 345 348 347 357 358 3
314 326 332 334 336 342 347 348 348 349 353 352 350 353 354 355 355 358 354 355 353 350 353 356 360 2 359 360 1 0 5 6 7 8 7 6 10 14 7 2 355 348 347 347 359 1 3
309 311 319 325 328 333 340 338 341 343 344 347 346 348 347 349 355 355 353 354 346 344 346 353 355 358 358 358 356 357 358 4 6 8 7 7 5 10 12 8 360 352 347 347 0 4 3
305 309 312 318 323 323 329 332 335 340 337 336 337 340 337 344 347 345 347 348 348 340 342 347 353 355 356 356 355 352 355 360 5 5 6 6 4 4 8 13 8 357 350 349 355 8 8
299 303 308 314 318 318 319 326 327 331 333 332 332 332 332 336 340 340 341 342 347 349 336 341 350 353 356 353 353 347 350 355 359 2 4 3 5 2 3 7 9 6 360 354 352 1 14
294 295 302 309 313 312 316 321 321 324 329 328 330 325 324 329 333 336 336 339 345 344 341 335 342 350 355 352 352 346 345 352 354 357 359 360 1 2 1 3 6 6 2 358 353 354 4
291 293 299 303 306 307 312 315 318 320 322 326 323 323 321 327 330 332 331 334 340 341 342 335 334 342 350 350 349 347 341 345 347 352 354 358 356 358 360 358 1 5 6 1 356 350 353
288 292 297 301 304 307 310 313 315 318 318 323 324 323 325 326 325 327 331 332 335 335 338 336 332 338 345 345 345 345 342 338 342 347 350 352 352 352 355 356 355 359 4 3 358 357 349
285 291 296 300 303 305 309 312 314 314 317 319 324 328 327 329 328 325 325 331 335 331 331 332 330 334 337 339 339 342 342 340 339 342 345 347 348 347 349 351 351 351 355 0 1 356 349
282 288 293 298 302 304 306 309 311 313 314 318 318 323 323 328 329 327 325 328 330 331 327 329 329 333 332 334 334 337 338 336 338 340 340 342 344 343 343 345 348 346 346 350 355 357 357
279 286 293 296 298 300 302 304 306 309 311 313 317 318 322 327 325 324 326 327 331 325 324 327 328 332 328 325 326 333 334 333 332 335 337 336 337 337 339 340 343 343 341 344 344 349 350
279 285 289 293 294 298 299 300 302 305 308 311 314 316 317 319 320 326 325 325 327 324 322 322 327 330 318 320 323 326 329 330 328 329 331 333 332 332 334 336 338 336 337 338 339 340 341
276 282 286 289 292 296 300 302 299 301 305 309 311 312 313 316 315 317 320 322 325 325 321 319 323 327 311 313 317 322 324 323 324 324 325 327 327 328 328 333 333 333 332 332 332 335 336
274 279 284 286 288 293 297 302 303 300 303 306 308 309 312 314 312 313 315 317 318 319 322 322 322 321 316 311 316 322 318 319 316 318 320 322 323 324 325 328 330 330 330 329 328 330 330
273 278 283 284 286 290 295 297 300 301 300 303 304 308 310 311 309 308 311 311 313 314 319 319 320 316 312 310 313 314 314 315 314 314 317 318 320 320 321 323 326 325 326 326 324 326 325
272 276 281 284 285 288 289 293 298 301 300 302 301 302 306 306 309 311 311 308 308 312 315 317 322 317 313 311 307 304 308 312 310 312 315 315 316 317 318 320 322 321 322 323 321 321 322
273 277 279 282 284 285 287 291 293 297 298 300 301 301 301 304 304 307 307 306 307 309 311 315 316 318 313 313 304 303 305 306 306 309 311 312 312 315 315 316 318 320 319 320 320 320 318
272 276 280 282 283 283 285 288 291 291 293 296 299 300 303 303 304 304 301 304 308 308 306 311 312 313 313 310 303 301 301 301 304 306 308 309 311 313 312 313 316 317 318 318 318 318 316
272 274 278 279 280 282 285 289 289 287 291 292 296 299 300 300 299 298 299 302 305 305 305 307 309 313 310 305 306 299 297 298 300 305 305 306 309 310 310 310 313 314 314 315 315 316 317
270 274 277 280 282 283 284 287 287 287 287 290 291 294 295 300 298 297 299 300 301 302 302 305 308 311 305 305 303 299 297 295 299 302 302 304 306 306 307 309 311 312 313 314 314 316 316